Location: Cheyres
(46.8153°N, 6.7877°E)
Time: 04:17:41
(UTC+00:00)

Landsat 7 - Pass Details

Date: 11 May 2021
Orbit: 701 x 703 km, 98.0° (Epoch: 18 June)

Event Time Altitude Azimuth Distance (km) Brightness Sun altitude
Exits shadow 20:22:51 12° 171° (S) 2,027 5.7 -12.7°
Maximum altitude 20:27:15 77° 257° (WSW) 728 3.9 -13.3°
Drops below altitude 10° 20:32:03 10° 344° (NNW) 2,182 7.4 -13.8°
Sets 20:34:19 0° 346° (NNW) 3,105 8.3 -14.1°
